| time (UTC) | temp F | wind direction | speed MPH | gust MPH | rain 1hr in | rain 24hr in | rain mn in | humidity % | barometer mb |
| 20260906175004 | 76 | 152 | 0.0 | 0.0 | 0.00 | 0.00 | 0.04 | 59 | 1010.6 |
| 20260906174600 | 77 | 152 | 0.0 | 0.0 | 0.00 | 0.00 | 0.04 | 59 | 1010.6 |
| 20260906174104 | 77 | 152 | 0.0 | 0.0 | 0.00 | 0.00 | 0.04 | 58 | 1010.7 |
| 20260906173501 | 77 | 152 | 0.0 | 0.0 | 0.00 | 0.00 | 0.04 | 59 | 1010.7 |
| 20260906173102 | 77 | 157 | 0.0 | 0.0 | 0.00 | 0.00 | 0.04 | 61 | 1010.7 |
| 20260906172554 | 77 | 157 | 0.0 | 0.0 | 0.00 | 0.00 | 0.04 | 59 | 1010.8 |
| 20260906172059 | 77 | 157 | 0.0 | 0.0 | 0.00 | 0.00 | 0.03 | 57 | 1010.8 |
| 20260906171608 | 77 | 155 | 0.0 | 0.0 | 0.00 | 0.00 | 0.03 | 60 | 1010.8 |
| 20260906171051 | 77 | 280 | 0.0 | 0.0 | 0.00 | 0.00 | 0.03 | 58 | 1010.7 |
| 20260906170600 | 76 | 243 | 0.0 | 0.0 | 0.00 | 0.00 | 0.03 | 56 | 1010.7 |
| 20260906170111 | 76 | 280 | 0.0 | 0.0 | 0.00 | 0.00 | 0.03 | 59 | 1010.7 |
| 20260906165501 | 76 | 280 | 0.0 | 0.0 | 0.00 | 0.00 | 0.03 | 60 | 1010.8 |
| 20260906165055 | 75 | 116 | 0.0 | 0.0 | 0.00 | 0.00 | 0.03 | 60 | 1010.8 |
| 20260906164612 | 75 | 289 | 0.0 | 0.0 | 0.00 | 0.00 | 0.03 | 62 | 1010.8 |
| 20260906164055 | 74 | 268 | 0.0 | 0.0 | 0.00 | 0.00 | 0.03 | 63 | 1010.9 |
| 20260906163559 | 75 | 270 | 0.0 | 0.0 | 0.00 | 0.00 | 0.03 | 62 | 1010.9 |
| 20260906163109 | 75 | 270 | 0.0 | 0.0 | 0.00 | 0.00 | 0.03 | 61 | 1010.9 |
| 20260906162501 | 75 | 270 | 0.0 | 0.0 | 0.00 | 0.00 | 0.03 | 60 | 1010.9 |
| 20260906162055 | 75 | 268 | 0.0 | 0.0 | 0.00 | 0.00 | 0.03 | 61 | 1010.9 |
| 20260906161559 | 74 | 282 | 0.0 | 0.0 | 0.00 | 0.00 | 0.03 | 62 | 1010.9 |
| 20260906161103 | 74 | 282 | 0.0 | 0.0 | 0.00 | 0.00 | 0.03 | 64 | 1011.1 |
| 20260906160501 | 74 | 309 | 0.0 | 0.0 | 0.00 | 0.00 | 0.03 | 64 | 1011.1 |
| 20260906160101 | 74 | 309 | 0.0 | 0.0 | 0.00 | 0.00 | 0.03 | 64 | 1011.1 |
| 20260906155600 | 74 | 316 | 0.0 | 0.0 | 0.00 | 0.00 | 0.03 | 65 | 1011.0 |
| 20260906155103 | 73 | 260 | 0.0 | 0.0 | 0.00 | 0.00 | 0.03 | 64 | 1011.0 |
| 20260906154501 | 73 | 260 | 0.0 | 0.0 | 0.00 | 0.00 | 0.03 | 65 | 1011.0 |
| 20260906154055 | 73 | 260 | 0.0 | 0.0 | 0.00 | 0.00 | 0.03 | 64 | 1010.9 |
| 20260906153602 | 73 | 251 | 0.0 | 0.0 | 0.00 | 0.00 | 0.03 | 65 | 1010.9 |
| 20260906153103 | 73 | 243 | 0.0 | 0.0 | 0.00 | 0.00 | 0.03 | 64 | 1010.9 |
| 20260906152501 | 73 | 243 | 0.0 | 0.0 | 0.00 | 0.00 | 0.03 | 63 | 1010.9 |
| 20260906152054 | 73 | 220 | 0.0 | 0.0 | 0.00 | 0.00 | 0.03 | 64 | 1010.9 |
| 20260906151601 | 73 | 219 | 0.0 | 0.0 | 0.00 | 0.00 | 0.03 | 63 | 1010.9 |
| 20260906151103 | 73 | 323 | 0.0 | 0.0 | 0.00 | 0.00 | 0.03 | 64 | 1010.8 |
| 20260906150609 | 73 | 312 | 0.0 | 0.0 | 0.00 | 0.00 | 0.03 | 64 | 1010.8 |
| 20260906150056 | 73 | 124 | 0.0 | 0.0 | 0.00 | 0.00 | 0.03 | 65 | 1010.8 |
| 20260906145559 | 72 | 123 | 0.0 | 0.0 | 0.00 | 0.00 | 0.02 | 63 | 1010.7 |
| 20260906145104 | 72 | 116 | 0.0 | 0.0 | 0.00 | 0.00 | 0.02 | 65 | 1010.7 |
| 20260906144505 | 71 | 282 | 0.0 | 0.0 | 0.00 | 0.00 | 0.02 | 67 | 1010.7 |
| 20260906144057 | 71 | 282 | 0.0 | 0.0 | 0.00 | 0.00 | 0.02 | 68 | 1010.7 |
| 20260906143600 | 70 | 302 | 0.0 | 0.0 | 0.00 | 0.00 | 0.02 | 70 | 1010.7 |
| 20260906143114 | 69 | 302 | 0.0 | 0.0 | 0.00 | 0.00 | 0.02 | 72 | 1010.7 |
| 20260906142501 | 69 | 302 | 0.0 | 0.0 | 0.00 | 0.00 | 0.02 | 73 | 1010.6 |
| 20260906142057 | 68 | 302 | 0.0 | 0.0 | 0.00 | 0.00 | 0.02 | 75 | 1010.6 |
| 20260906141604 | 68 | 319 | 0.0 | 0.0 | 0.00 | 0.00 | 0.02 | 77 | 1010.6 |
| 20260906141002 | 68 | 291 | 0.0 | 0.0 | 0.00 | 0.00 | 0.02 | 79 | 1010.6 |
| 20260906140559 | 67 | 291 | 0.0 | 0.0 | 0.00 | 0.00 | 0.02 | 79 | 1010.6 |
| 20260906140105 | 67 | 291 | 0.0 | 0.0 | 0.00 | 0.00 | 0.02 | 80 | 1010.6 |
| 20260906135504 | 67 | 291 | 0.0 | 0.0 | 0.00 | 0.00 | 0.02 | 81 | 1010.6 |
| 20260906135100 | 66 | 291 | 0.0 | 0.0 | 0.00 | 0.00 | 0.02 | 81 | 1010.6 |
| 20260906134602 | 66 | 291 | 0.0 | 0.0 | 0.00 | 0.00 | 0.02 | 84 | 1010.6 |
| 20260906134001 | 66 | 289 | 0.0 | 0.0 | 0.00 | 0.00 | 0.02 | 85 | 1010.4 |
| 20260906133503 | 65 | 289 | 0.0 | 0.0 | 0.00 | 0.00 | 0.02 | 86 | 1010.4 |
| 20260906133101 | 65 | 289 | 0.0 | 0.0 | 0.00 | 0.00 | 0.02 | 86 | 1010.4 |
| 20260906132603 | 65 | 289 | 0.0 | 0.0 | 0.00 | 0.00 | 0.02 | 87 | 1010.5 |
| 20260906132001 | 65 | 289 | 0.0 | 0.0 | 0.00 | 0.00 | 0.02 | 88 | 1010.5 |
| 20260906131604 | 64 | 289 | 0.0 | 0.0 | 0.00 | 0.00 | 0.02 | 88 | 1010.5 |
| 20260906131006 | 64 | 289 | 0.0 | 0.0 | 0.00 | 0.00 | 0.02 | 89 | 1010.4 |
| 20260906130510 | 64 | 289 | 0.0 | 0.0 | 0.00 | 0.00 | 0.02 | 90 | 1010.4 |
| 20260906130104 | 63 | 289 | 0.0 | 0.0 | 0.00 | 0.00 | 0.02 | 92 | 1010.4 |
| 20260906125552 | 63 | 287 | 0.0 | 0.0 | 0.00 | 0.00 | 0.02 | 93 | 1010.4 |
| 20260906125058 | 63 | 287 | 0.0 | 0.0 | 0.00 | 0.00 | 0.02 | 94 | 1010.4 |
| 20260906124500 | 62 | 287 | 0.0 | 0.0 | 0.00 | 0.00 | 0.02 | 95 | 1010.4 |
| 20260906124004 | 62 | 250 | 0.0 | 0.0 | 0.00 | 0.00 | 0.02 | 95 | 1010.3 |
| 20260906123506 | 62 | 270 | 0.0 | 0.0 | 0.00 | 0.00 | 0.02 | 95 | 1010.3 |
| 20260906123011 | 61 | 270 | 0.0 | 0.0 | 0.00 | 0.00 | 0.02 | 95 | 1010.3 |
| 20260906122604 | 61 | 270 | 0.0 | 0.0 | 0.00 | 0.00 | 0.02 | 96 | 1010.2 |
| 20260906122005 | 61 | 270 | 0.0 | 0.0 | 0.00 | 0.00 | 0.02 | 96 | 1010.2 |
| 20260906121509 | 61 | 270 | 0.0 | 0.0 | 0.00 | 0.00 | 0.02 | 95 | 1010.2 |
| 20260906121103 | 61 | 270 | 0.0 | 0.0 | 0.00 | 0.00 | 0.02 | 95 | 1010.0 |
| 20260906120504 | 60 | 270 | 0.0 | 0.0 | 0.00 | 0.00 | 0.02 | 95 | 1010.0 |
| 20260906120009 | 60 | 270 | 0.0 | 0.0 | 0.00 | 0.00 | 0.02 | 95 | 1010.0 |
| 20260906115604 | 60 | 270 | 0.0 | 0.0 | 0.00 | 0.00 | 0.02 | 95 | 1010.0 |
| 20260906115000 | 60 | 270 | 0.0 | 0.0 | 0.00 | 0.00 | 0.02 | 95 | 1010.0 |
| 20260906114505 | 60 | 270 | 0.0 | 0.0 | 0.00 | 0.00 | 0.02 | 96 | 1010.0 |
| 20260906114008 | 60 | 270 | 0.0 | 0.0 | 0.00 | 0.00 | 0.02 | 96 | 1009.8 |
| 20260906113512 | 60 | 270 | 0.0 | 0.0 | 0.00 | 0.00 | 0.02 | 95 | 1009.8 |
| 20260906113000 | 60 | 270 | 0.0 | 0.0 | 0.00 | 0.00 | 0.02 | 95 | 1009.8 |
| 20260906112555 | 60 | 270 | 0.0 | 0.0 | 0.00 | 0.00 | 0.02 | 95 | 1009.6 |
| 20260906112058 | 59 | 270 | 0.0 | 0.0 | 0.00 | 0.00 | 0.02 | 95 | 1009.6 |
| 20260906111617 | 59 | 270 | 0.0 | 0.0 | 0.00 | 0.00 | 0.02 | 95 | 1009.6 |
| 20260906111055 | 59 | 270 | 0.0 | 0.0 | 0.00 | 0.00 | 0.02 | 95 | 1009.4 |
| 20260906110603 | 59 | 270 | 0.0 | 0.0 | 0.00 | 0.00 | 0.02 | 95 | 1009.4 |
| 20260906110003 | 59 | 270 | 0.0 | 0.0 | 0.00 | 0.00 | 0.02 | 95 | 1009.4 |
| 20260906105558 | 59 | 270 | 0.0 | 0.0 | 0.00 | 0.00 | 0.02 | 95 | 1009.1 |
| 20260906105109 | 59 | 270 | 0.0 | 0.0 | 0.00 | 0.00 | 0.02 | 95 | 1009.1 |
| 20260906104559 | 59 | 270 | 0.0 | 0.0 | 0.00 | 0.00 | 0.02 | 95 | 1009.1 |
| 20260906104103 | 59 | 270 | 0.0 | 0.0 | 0.00 | 0.00 | 0.02 | 95 | 1008.8 |
| 20260906103501 | 59 | 270 | 0.0 | 0.0 | 0.00 | 0.00 | 0.02 | 95 | 1008.8 |
| 20260906103005 | 59 | 270 | 0.0 | 0.0 | 0.00 | 0.00 | 0.02 | 94 | 1008.8 |
| 20260906102600 | 59 | 270 | 0.0 | 0.0 | 0.00 | 0.00 | 0.02 | 94 | 1008.7 |
| 20260906102104 | 59 | 270 | 0.0 | 0.0 | 0.00 | 0.00 | 0.02 | 94 | 1008.7 |
| 20260906101502 | 60 | 270 | 0.0 | 0.0 | 0.00 | 0.00 | 0.02 | 94 | 1008.7 |
| 20260906101005 | 60 | 270 | 0.0 | 0.0 | 0.00 | 0.00 | 0.02 | 94 | 1008.6 |
| 20260906100508 | 60 | 270 | 0.0 | 0.0 | 0.00 | 0.00 | 0.02 | 94 | 1008.6 |
| 20260906100103 | 60 | 270 | 0.0 | 0.0 | 0.00 | 0.00 | 0.02 | 94 | 1008.6 |
| 20260906095502 | 60 | 270 | 0.0 | 0.0 | 0.00 | 0.00 | 0.02 | 94 | 1008.5 |
| 20260906095009 | 60 | 270 | 0.0 | 0.0 | 0.00 | 0.00 | 0.02 | 94 | 1008.5 |
| 20260906094605 | 60 | 270 | 0.0 | 0.0 | 0.00 | 0.00 | 0.02 | 94 | 1008.5 |
| 20260906094053 | 60 | 270 | 0.0 | 0.0 | 0.00 | 0.00 | 0.02 | 94 | 1008.3 |
| 20260906093557 | 60 | 270 | 0.0 | 0.0 | 0.00 | 0.00 | 0.02 | 94 | 1008.3 |
| 20260906093054 | 60 | 270 | 0.0 | 0.0 | 0.00 | 0.00 | 0.02 | 94 | 1008.3 |
| 20260906092558 | 60 | 270 | 0.0 | 0.0 | 0.00 | 0.00 | 0.02 | 94 | 1008.1 |
| 20260906092106 | 60 | 270 | 0.0 | 0.0 | 0.00 | 0.00 | 0.02 | 94 | 1008.1 |
| 20260906091554 | 60 | 270 | 0.0 | 0.0 | 0.00 | 0.00 | 0.01 | 94 | 1008.1 |
| 20260906091059 | 60 | 270 | 0.0 | 0.0 | 0.00 | 0.00 | 0.01 | 94 | 1007.9 |
| 20260906090601 | 60 | 270 | 0.0 | 0.0 | 0.00 | 0.00 | 0.01 | 94 | 1007.9 |
| 20260906090105 | 60 | 270 | 0.0 | 0.0 | 0.00 | 0.00 | 0.01 | 93 | 1007.9 |
| 20260906085557 | 60 | 270 | 0.0 | 0.0 | 0.00 | 0.00 | 0.01 | 93 | 1007.8 |
| 20260906085105 | 60 | 270 | 0.0 | 0.0 | 0.00 | 0.00 | 0.01 | 93 | 1007.8 |
| 20260906084504 | 60 | 270 | 0.0 | 0.0 | 0.00 | 0.00 | 0.01 | 1007.8 | |
| 20260906084057 | 60 | 270 | 0.0 | 0.0 | 0.00 | 0.00 | 0.01 | 93 | 1007.7 |
| 20260906083601 | 60 | 270 | 0.0 | 0.0 | 0.00 | 0.00 | 0.01 | 93 | 1007.7 |
| 20260906083053 | 60 | 270 | 0.0 | 0.0 | 0.00 | 0.00 | 0.01 | 93 | 1007.7 |
| 20260906082552 | 61 | 270 | 0.0 | 0.0 | 0.00 | 0.00 | 0.01 | 93 | 1007.6 |
| 20260906082051 | 61 | 270 | 0.0 | 0.0 | 0.00 | 0.00 | 0.01 | 93 | 1007.6 |
| 20260906081555 | 61 | 270 | 0.0 | 0.0 | 0.00 | 0.00 | 0.01 | 93 | 1007.6 |
| 20260906081100 | 61 | 270 | 0.0 | 0.0 | 0.00 | 0.00 | 0.01 | 93 | 1007.6 |
| 20260906080501 | 61 | 270 | 0.0 | 0.0 | 0.00 | 0.00 | 0.01 | 93 | 1007.6 |
| 20260906080014 | 61 | 270 | 0.0 | 0.0 | 0.00 | 0.00 | 0.01 | 93 | 1007.6 |
| 20260906075501 | 61 | 270 | 0.0 | 0.0 | 0.00 | 0.00 | 0.01 | 93 | 1007.6 |
| 20260906075005 | 61 | 270 | 0.0 | 0.0 | 0.00 | 0.00 | 0.01 | 93 | 1007.6 |
| 20260906074514 | 61 | 270 | 0.0 | 0.0 | 0.00 | 0.00 | 0.01 | 93 | 1007.6 |
| 20260906074002 | 61 | 270 | 0.0 | 0.0 | 0.00 | 0.00 | 0.01 | 93 | 1007.5 |
| 20260906073506 | 61 | 270 | 0.0 | 0.0 | 0.00 | 0.00 | 0.01 | 94 | 1007.5 |
| 20260906073008 | 61 | 270 | 0.0 | 0.0 | 0.00 | 0.00 | 0.01 | 93 | 1007.5 |
| 20260906072604 | 61 | 270 | 0.0 | 0.0 | 0.00 | 0.00 | 0.01 | 94 | 1007.5 |
| 20260906072055 | 61 | 270 | 0.0 | 0.0 | 0.00 | 0.00 | 0.01 | 94 | 1007.5 |
| 20260906071603 | 61 | 270 | 0.0 | 0.0 | 0.00 | 0.00 | 0.01 | 94 | 1007.5 |
| 20260906071107 | 61 | 270 | 0.0 | 0.0 | 0.00 | 0.00 | 0.01 | 94 | 1007.5 |
| 20260906070553 | 61 | 270 | 0.0 | 0.0 | 0.00 | 0.00 | 0.01 | 94 | 1007.5 |
| 20260906070104 | 61 | 270 | 0.0 | 0.0 | 0.00 | 0.00 | 0.01 | 94 | 1007.5 |
| 20260906065506 | 61 | 270 | 0.0 | 0.0 | 0.00 | 0.00 | 0.01 | 94 | 1007.5 |
| 20260906065006 | 61 | 270 | 0.0 | 0.0 | 0.00 | 0.00 | 0.01 | 94 | 1007.5 |
| 20260906064600 | 61 | 270 | 0.0 | 0.0 | 0.00 | 0.00 | 0.01 | 94 | 1007.5 |
| 20260906064107 | 61 | 270 | 0.0 | 0.0 | 0.00 | 0.00 | 0.01 | 94 | 1007.6 |
| 20260906063501 | 61 | 270 | 0.0 | 0.0 | 0.00 | 0.00 | 0.01 | 94 | 1007.6 |
| 20260906063006 | 61 | 270 | 0.0 | 0.0 | 0.00 | 0.00 | 0.01 | 94 | 1007.6 |
| 20260906062602 | 61 | 270 | 0.0 | 0.0 | 0.00 | 0.00 | 0.01 | 94 | 1007.6 |
| 20260906062104 | 61 | 270 | 0.0 | 0.0 | 0.00 | 0.00 | 0.01 | 94 | 1007.6 |
| 20260906061502 | 61 | 270 | 0.0 | 0.0 | 0.00 | 0.00 | 0.01 | 94 | 1007.6 |
| 20260906061006 | 61 | 270 | 0.0 | 0.0 | 0.00 | 0.00 | 0.01 | 94 | 1007.7 |
| 20260906060600 | 61 | 270 | 0.0 | 0.0 | 0.00 | 0.00 | 0.01 | 94 | 1007.7 |
| 20260906060104 | 61 | 270 | 0.0 | 0.0 | 0.00 | 0.00 | 0.01 | 94 | 1007.7 |
| 20260906055502 | 62 | 270 | 0.0 | 0.0 | 0.00 | 0.00 | 0.01 | 93 | 1007.7 |
| 20260906055101 | 62 | 270 | 0.0 | 0.0 | 0.00 | 0.00 | 0.01 | 93 | 1007.7 |
| 20260906054609 | 62 | 270 | 0.0 | 0.0 | 0.00 | 0.00 | 0.01 | 93 | 1007.7 |
| 20260906054002 | 62 | 270 | 0.0 | 0.0 | 0.00 | 0.00 | 0.01 | 93 | 1007.9 |
| 20260906053505 | 62 | 270 | 0.0 | 0.0 | 0.00 | 0.00 | 0.01 | 94 | 1007.9 |
| 20260906053101 | 62 | 270 | 0.0 | 0.0 | 0.00 | 0.00 | 0.01 | 94 | 1007.9 |
| 20260906052605 | 62 | 270 | 0.0 | 0.0 | 0.00 | 0.00 | 0.01 | 93 | 1008.0 |
| 20260906052010 | 62 | 270 | 0.0 | 0.0 | 0.00 | 0.00 | 0.01 | 94 | 1008.0 |
| 20260906051609 | 62 | 270 | 0.0 | 0.0 | 0.00 | 0.00 | 0.00 | 94 | 1008.0 |
| 20260906051003 | 62 | 270 | 0.0 | 0.0 | 0.00 | 0.00 | 0.00 | 93 | 1008.0 |
| 20260906050510 | 62 | 270 | 0.0 | 0.0 | 0.00 | 0.00 | 0.00 | 93 | 1008.0 |
| 20260906050106 | 62 | 270 | 0.0 | 0.0 | 0.00 | 0.00 | 0.00 | 93 | 1008.0 |
| 20260906045502 | 62 | 270 | 0.0 | 0.0 | 0.00 | 0.00 | 0.00 | 93 | 1008.0 |
| 20260906045006 | 62 | 270 | 0.0 | 0.0 | 0.00 | 0.00 | 0.00 | 93 | 1008.0 |
| 20260906044514 | 62 | 270 | 0.0 | 0.0 | 0.00 | 0.00 | 0.00 | 93 | 1008.0 |
| 20260906044104 | 62 | 270 | 0.0 | 0.0 | 0.00 | 0.00 | 0.00 | 93 | 1008.0 |
| 20260906043553 | 62 | 270 | 0.0 | 0.0 | 0.00 | 0.00 | 0.00 | 93 | 1008.0 |
| 20260906043106 | 62 | 270 | 0.0 | 0.0 | 0.00 | 0.00 | 0.00 | 93 | 1008.0 |
| 20260906042501 | 62 | 270 | 0.0 | 0.0 | 0.00 | 0.00 | 0.00 | 93 | 1008.1 |
| 20260906042006 | 63 | 270 | 0.0 | 0.0 | 0.00 | 0.00 | 0.00 | 93 | 1008.1 |
| 20260906041510 | 63 | 270 | 0.0 | 0.0 | 0.00 | 0.00 | 0.00 | 93 | 1008.1 |
| 20260906041104 | 63 | 270 | 0.0 | 0.0 | 0.00 | 0.00 | 0.00 | 93 | 1008.3 |
| 20260906040503 | 63 | 270 | 0.0 | 0.0 | 0.00 | 0.00 | 0.00 | 93 | 1008.3 |
| 20260906040009 | 63 | 270 | 0.0 | 0.0 | 0.00 | 0.00 | 0.00 | 93 | 1008.3 |
| 20260906035508 | 63 | 270 | 0.0 | 0.0 | 0.00 | 0.00 | 0.11 | 93 | 1008.0 |
| 20260906035011 | 63 | 270 | 0.0 | 0.0 | 0.00 | 0.00 | 0.11 | 92 | 1008.0 |
| 20260906034606 | 63 | 270 | 0.0 | 0.0 | 0.00 | 0.00 | 0.11 | 92 | 1008.0 |
| 20260906033606 | 63 | 270 | 0.0 | 0.0 | 0.00 | 0.00 | 0.11 | 92 | 1008.0 |
| 20260906033008 | 63 | 270 | 0.0 | 0.0 | 0.00 | 0.00 | 0.11 | 92 | 1008.0 |
| 20260906032559 | 63 | 270 | 0.0 | 0.0 | 0.00 | 0.00 | 0.11 | 92 | 1008.0 |
| 20260906032059 | 63 | 270 | 0.0 | 0.0 | 0.00 | 0.00 | 0.11 | 92 | 1008.0 |
| 20260906031606 | 63 | 270 | 0.0 | 0.0 | 0.00 | 0.00 | 0.11 | 92 | 1008.0 |
| 20260906031106 | 63 | 270 | 0.0 | 0.0 | 0.00 | 0.00 | 0.11 | 92 | 1007.8 |
| 20260906030554 | 64 | 270 | 0.0 | 0.0 | 0.00 | 0.00 | 0.11 | 92 | 1007.8 |
| 20260906030058 | 64 | 270 | 0.0 | 0.0 | 0.00 | 0.00 | 0.11 | 91 | 1007.8 |
| 20260906025559 | 64 | 270 | 0.0 | 0.0 | 0.00 | 0.00 | 0.11 | 91 | 1007.9 |
| 20260906025103 | 64 | 270 | 0.0 | 0.0 | 0.00 | 0.00 | 0.11 | 91 | 1007.9 |
| 20260906024627 | 64 | 270 | 0.0 | 0.0 | 0.00 | 0.00 | 0.11 | 91 | 1007.9 |
| 20260906024003 | 64 | 270 | 0.0 | 0.0 | 0.00 | 0.00 | 0.11 | 91 | 1007.8 |
| 20260906023506 | 64 | 270 | 0.0 | 0.0 | 0.00 | 0.00 | 0.11 | 91 | 1007.8 |
| 20260906023009 | 64 | 270 | 0.0 | 0.0 | 0.00 | 0.00 | 0.11 | 90 | 1007.8 |
| 20260906022603 | 64 | 270 | 0.0 | 0.0 | 0.00 | 0.00 | 0.11 | 90 | 1007.6 |
| 20260906022004 | 64 | 270 | 0.0 | 0.0 | 0.00 | 0.00 | 0.11 | 90 | 1007.6 |
| 20260906021508 | 64 | 270 | 0.0 | 0.0 | 0.00 | 0.00 | 0.11 | 90 | 1007.6 |
| 20260906021010 | 64 | 270 | 0.0 | 0.0 | 0.00 | 0.00 | 0.11 | 90 | 1007.6 |
| 20260906020606 | 64 | 270 | 0.0 | 0.0 | 0.00 | 0.00 | 0.11 | 89 | 1007.6 |
| 20260906020002 | 65 | 270 | 0.0 | 0.0 | 0.00 | 0.00 | 0.11 | 89 | 1007.6 |
| 20260906015504 | 65 | 270 | 0.0 | 0.0 | 0.00 | 0.00 | 0.11 | 89 | 1007.6 |
| 20260906015008 | 65 | 270 | 0.0 | 0.0 | 0.00 | 0.00 | 0.11 | 89 | 1007.6 |
| 20260906014609 | 65 | 270 | 0.0 | 0.0 | 0.00 | 0.00 | 0.11 | 88 | 1007.6 |
| 20260906014106 | 65 | 270 | 0.0 | 0.0 | 0.00 | 0.00 | 0.11 | 88 | 1007.5 |
| 20260906013506 | 65 | 270 | 0.0 | 0.0 | 0.00 | 0.00 | 0.11 | 88 | 1007.5 |
| 20260906013014 | 65 | 270 | 0.0 | 0.0 | 0.00 | 0.00 | 0.11 | 88 | 1007.5 |
| 20260906012604 | 65 | 270 | 0.0 | 0.0 | 0.00 | 0.00 | 0.11 | 88 | 1007.2 |
| 20260906012004 | 66 | 270 | 0.0 | 0.0 | 0.00 | 0.00 | 0.11 | 87 | 1007.2 |
| 20260906011600 | 66 | 270 | 0.0 | 0.0 | 0.00 | 0.00 | 0.11 | 87 | 1007.2 |
| 20260906011052 | 66 | 270 | 0.0 | 0.0 | 0.00 | 0.00 | 0.11 | 87 | 1007.0 |
| 20260906010559 | 66 | 270 | 0.0 | 0.0 | 0.00 | 0.00 | 0.11 | 86 | 1007.0 |
| 20260906010120 | 66 | 270 | 0.0 | 0.0 | 0.00 | 0.00 | 0.11 | 85 | 1007.0 |
| 20260906005552 | 66 | 270 | 0.0 | 0.0 | 0.00 | 0.00 | 0.11 | 85 | 1007.0 |
| 20260906005059 | 66 | 270 | 0.0 | 0.0 | 0.00 | 0.00 | 0.11 | 85 | 1007.0 |
| 20260906004607 | 67 | 270 | 0.0 | 0.0 | 0.00 | 0.00 | 0.11 | 84 | 1007.0 |
| 20260906004107 | 67 | 270 | 0.0 | 0.0 | 0.00 | 0.00 | 0.10 | 84 | 1006.9 |
| 20260906003502 | 67 | 270 | 0.0 | 0.0 | 0.00 | 0.00 | 0.10 | 83 | 1006.9 |
| 20260906003004 | 67 | 270 | 0.0 | 0.0 | 0.00 | 0.00 | 0.10 | 83 | 1006.9 |
| 20260906002507 | 67 | 270 | 0.0 | 0.0 | 0.00 | 0.00 | 0.10 | 82 | 1006.6 |
| 20260906002011 | 68 | 270 | 0.0 | 0.0 | 0.00 | 0.00 | 0.10 | 82 | 1006.6 |
| 20260906001612 | 68 | 270 | 0.0 | 0.0 | 0.00 | 0.00 | 0.10 | 82 | 1006.6 |
| 20260906001003 | 68 | 270 | 0.0 | 0.0 | 0.00 | 0.00 | 0.10 | 81 | 1006.4 |
| 20260906000511 | 69 | 270 | 0.0 | 0.0 | 0.00 | 0.00 | 0.10 | 80 | 1006.4 |
| 20260906000009 | 69 | 270 | 0.0 | 0.0 | 0.00 | 0.00 | 0.10 | 79 | 1006.4 |
| 20260905235606 | 69 | 270 | 0.0 | 0.0 | 0.00 | 0.00 | 0.10 | 77 | 1006.3 |
| 20260905235106 | 69 | 270 | 0.0 | 0.0 | 0.00 | 0.00 | 0.10 | 78 | 1006.3 |
| 20260905234503 | 70 | 270 | 0.0 | 0.0 | 0.00 | 0.00 | 0.10 | 76 | 1006.3 |
| 20260905234006 | 70 | 270 | 0.0 | 0.0 | 0.00 | 0.00 | 0.10 | 76 | 1005.9 |
| 20260905233510 | 71 | 270 | 0.0 | 0.0 | 0.00 | 0.00 | 0.10 | 76 | 1005.9 |
| 20260905233104 | 71 | 270 | 0.0 | 0.0 | 0.00 | 0.00 | 0.10 | 75 | 1005.9 |
| 20260905232606 | 71 | 270 | 0.0 | 0.0 | 0.00 | 0.00 | 0.10 | 75 | 1006.0 |
| 20260905232003 | 72 | 270 | 0.0 | 0.0 | 0.00 | 0.00 | 0.10 | 71 | 1006.0 |
| 20260905231507 | 72 | 270 | 0.0 | 0.0 | 0.00 | 0.00 | 0.10 | 69 | 1006.0 |
| 20260905231100 | 72 | 270 | 0.0 | 0.0 | 0.00 | 0.00 | 0.10 | 69 | 1006.1 |
| 20260905230605 | 72 | 270 | 0.0 | 0.0 | 0.00 | 0.00 | 0.10 | 67 | 1006.1 |
| 20260905230005 | 72 | 270 | 0.0 | 0.0 | 0.00 | 0.00 | 0.10 | 68 | 1006.1 |
| 20260905225559 | 73 | 270 | 0.0 | 0.0 | 0.00 | 0.00 | 0.10 | 68 | 1006.1 |
| 20260905225103 | 73 | 270 | 0.0 | 0.0 | 0.00 | 0.00 | 0.10 | 67 | 1006.1 |
| 20260905224605 | 73 | 270 | 0.0 | 0.0 | 0.00 | 0.00 | 0.10 | 66 | 1006.1 |
| 20260905224003 | 73 | 270 | 0.0 | 0.0 | 0.00 | 0.00 | 0.10 | 66 | 1006.1 |
| 20260905223505 | 74 | 270 | 0.0 | 0.0 | 0.00 | 0.00 | 0.10 | 67 | 1006.1 |
| 20260905223058 | 74 | 270 | 0.0 | 0.0 | 0.00 | 0.00 | 0.10 | 65 | 1006.1 |
| 20260905222603 | 74 | 270 | 0.0 | 0.0 | 0.00 | 0.00 | 0.10 | 66 | 1005.9 |
| 20260905222007 | 74 | 270 | 0.0 | 0.0 | 0.00 | 0.00 | 0.10 | 66 | 1005.9 |
| 20260905221600 | 75 | 270 | 0.0 | 0.0 | 0.00 | 0.00 | 0.10 | 65 | 1005.9 |
| 20260905221107 | 75 | 270 | 0.0 | 0.0 | 0.00 | 0.00 | 0.10 | 64 | 1005.7 |
| 20260905220504 | 75 | 270 | 0.0 | 0.0 | 0.00 | 0.00 | 0.09 | 63 | 1005.7 |
| 20260905220104 | 75 | 270 | 0.0 | 0.0 | 0.00 | 0.00 | 0.09 | 63 | 1005.7 |
| 20260905215607 | 75 | 270 | 0.0 | 0.0 | 0.00 | 0.00 | 0.09 | 62 | 1005.8 |
| 20260905215005 | 75 | 270 | 0.0 | 0.0 | 0.00 | 0.00 | 0.09 | 61 | 1005.8 |
| 20260905214507 | 75 | 270 | 0.0 | 0.0 | 0.00 | 0.00 | 0.09 | 60 | 1005.8 |
| 20260905214010 | 75 | 270 | 0.0 | 0.0 | 0.00 | 0.00 | 0.09 | 59 | 1005.8 |
| 20260905213604 | 76 | 270 | 0.0 | 0.0 | 0.00 | 0.00 | 0.09 | 59 | 1005.8 |
| 20260905213106 | 76 | 270 | 0.0 | 0.0 | 0.00 | 0.00 | 0.09 | 58 | 1005.8 |
| 20260905212504 | 76 | 270 | 0.0 | 0.0 | 0.00 | 0.00 | 0.09 | 58 | 1005.7 |
| 20260905212006 | 76 | 270 | 0.0 | 0.0 | 0.00 | 0.00 | 0.09 | 54 | 1005.7 |
| 20260905211559 | 76 | 196 | 0.0 | 0.0 | 0.00 | 0.00 | 0.09 | 56 | 1005.7 |
| 20260905211104 | 76 | 257 | 0.0 | 0.0 | 0.00 | 0.00 | 0.09 | 61 | 1005.6 |
| 20260905210605 | 76 | 257 | 0.0 | 0.0 | 0.00 | 0.00 | 0.09 | 57 | 1005.6 |
| 20260905210008 | 76 | 248 | 0.0 | 0.0 | 0.00 | 0.00 | 0.09 | 57 | 1005.6 |
| 20260905205557 | 76 | 263 | 0.0 | 0.0 | 0.00 | 0.00 | 0.09 | 56 | 1005.5 |
| 20260905205100 | 76 | 257 | 0.0 | 0.0 | 0.00 | 0.00 | 0.09 | 57 | 1005.5 |
| 20260905204611 | 77 | 251 | 0.0 | 0.0 | 0.00 | 0.00 | 0.09 | 59 | 1005.5 |
| 20260905204002 | 77 | 251 | 0.0 | 0.0 | 0.00 | 0.00 | 0.09 | 58 | 1005.4 |
| 20260905203504 | 76 | 251 | 0.0 | 0.0 | 0.00 | 0.00 | 0.09 | 56 | 1005.4 |
| 20260905203100 | 76 | 251 | 0.0 | 0.0 | 0.00 | 0.00 | 0.09 | 58 | 1005.4 |
| 20260905202601 | 76 | 291 | 0.0 | 0.0 | 0.00 | 0.00 | 0.09 | 60 | 1005.5 |
| 20260905202105 | 76 | 291 | 0.0 | 0.0 | 0.00 | 0.00 | 0.09 | 57 | 1005.5 |
| 20260905201502 | 76 | 291 | 0.0 | 0.0 | 0.00 | 0.00 | 0.09 | 61 | 1005.5 |
| 20260905201055 | 76 | 291 | 0.0 | 0.0 | 0.00 | 0.00 | 0.09 | 60 | 1005.6 |
| 20260905200601 | 76 | 291 | 0.0 | 0.0 | 0.00 | 0.00 | 0.09 | 61 | 1005.6 |
| 20260905200108 | 76 | 291 | 0.0 | 0.0 | 0.00 | 0.00 | 0.09 | 62 | 1005.6 |
| 20260905195605 | 76 | 291 | 0.0 | 0.0 | 0.00 | 0.00 | 0.09 | 61 | 1005.8 |
| 20260905195004 | 77 | 291 | 0.0 | 0.0 | 0.00 | 0.00 | 0.09 | 59 | 1005.8 |
| 20260905194506 | 77 | 291 | 0.0 | 0.0 | 0.00 | 0.00 | 0.09 | 60 | 1005.8 |
| 20260905194008 | 77 | 291 | 0.0 | 0.0 | 0.00 | 0.00 | 0.09 | 57 | 1005.9 |
| 20260905193601 | 78 | 291 | 0.0 | 0.0 | 0.00 | 0.00 | 0.09 | 54 | 1005.9 |
| 20260905193104 | 78 | 291 | 0.0 | 0.0 | 0.00 | 0.00 | 0.09 | 53 | 1005.9 |
| 20260905192553 | 77 | 291 | 0.0 | 0.0 | 0.00 | 0.00 | 0.08 | 54 | 1005.9 |
| 20260905192102 | 77 | 291 | 0.0 | 0.0 | 0.00 | 0.00 | 0.08 | 53 | 1005.9 |
| 20260905191500 | 77 | 320 | 0.0 | 0.0 | 0.00 | 0.00 | 0.08 | 55 | 1005.9 |
| 20260905191011 | 77 | 320 | 0.0 | 0.0 | 0.00 | 0.00 | 0.08 | 56 | 1006.1 |
| 20260905190513 | 77 | 299 | 0.0 | 0.0 | 0.00 | 0.00 | 0.08 | 56 | 1006.1 |
| 20260905190001 | 77 | 299 | 0.0 | 0.0 | 0.00 | 0.00 | 0.08 | 55 | 1006.1 |
| 20260905185553 | 77 | 299 | 0.0 | 0.0 | 0.00 | 0.00 | 0.08 | 55 | 1006.2 |
| 20260905185057 | 78 | 299 | 0.0 | 0.0 | 0.00 | 0.00 | 0.08 | 54 | 1006.2 |
| 20260905184604 | 78 | 299 | 0.0 | 0.0 | 0.00 | 0.00 | 0.08 | 52 | 1006.2 |
| 20260905184104 | 78 | 299 | 0.0 | 0.0 | 0.00 | 0.00 | 0.08 | 52 | 1006.2 |
| 20260905183552 | 78 | 299 | 0.0 | 0.0 | 0.00 | 0.00 | 0.08 | 54 | 1006.2 |
| 20260905183058 | 78 | 298 | 0.0 | 0.0 | 0.00 | 0.00 | 0.08 | 54 | 1006.2 |
| 20260905182558 | 77 | 299 | 0.0 | 0.0 | 0.00 | 0.00 | 0.08 | 53 | 1006.3 |
| 20260905182101 | 77 | 299 | 0.0 | 0.0 | 0.00 | 0.00 | 0.08 | 54 | 1006.3 |
| 20260905181607 | 77 | 298 | 0.0 | 0.0 | 0.00 | 0.00 | 0.08 | 54 | 1006.3 |
| 20260905181003 | 78 | 298 | 0.0 | 0.0 | 0.00 | 0.00 | 0.08 | 53 | 1006.3 |
| 20260905180504 | 78 | 294 | 0.0 | 0.0 | 0.00 | 0.00 | 0.08 | 52 | 1006.3 |
| 20260905180008 | 78 | 294 | 0.0 | 0.0 | 0.00 | 0.00 | 0.08 | 51 | 1006.3 |
| 20260905175602 | 78 | 294 | 0.0 | 0.0 | 0.00 | 0.00 | 0.08 | 52 | 1006.4 |